Weather in Stepnoye

Russia / Chelyabinsk Oblast     53°52′35″N   59°04′54″E
temp.,
°C
wind,
m/s
gust,
m/s
humid.,
%
clouds,
%
prec.,
mm/h
press.,
hPa
HPBL,
m
20 january, thu
thu2023:00−14w229699 0.0 102710
02:00−18wnw2199100 0.0 10279
05:00−19wnw2110099 0.0 10289
08:00−18w1199100 0.0 10279
11:00−14wsw1197100 0.0 102627
14:00−10ssw2492100 0.0 1025135
17:00−17ssw229992 0.0 10269
20:00−21w219942 0.0 10279
21 january, fri
fri2123:00−23wnw229910 0.0 102710
02:00−23wnw22996 0.0 102710
05:00−23wnw22975 0.0 102810
08:00−22nw22935 0.0 10289
11:00−17nw21861 0.0 102721
14:00−10wsw00800 0.0 102542
17:00−15wnw11884 0.0 10269
20:00−18nw11965 0.0 10289
22 january, sat
sat2223:00−20nw219911 0.0 10299
02:00−20nw21997 0.0 10309
05:00−19nw2197100 0.0 10309
08:00−20nw2196100 0.0 10309
11:00−12nnw1187100 0.0 102930
14:00−10se1185100 0.0 102983
17:00−15wsw009465 0.0 10319
20:00−19wnw119872 0.0 10339
23 january, sun
sun2323:00−20nw1110076 0.0 10349
02:00−19nw1110073 0.0 10359
05:00−20nw2199100 0.0 10359
08:00−19nw219719 0.0 10369
11:00−14nw11905 0.0 103619
14:00−8ne228142 0.0 103568
17:00−13n118625 0.0 103810
20:00−16nw218759 0.0 10409
24 january, mon
mon2423:00−17nw229263 0.0 10419
02:00−17nw2292100 0.0 10419
05:00−17nw228628 0.0 10429
08:00−17nnw228274 0.0 104210
11:00−11nw1177100 0.0 104128
14:00−6ene117699 0.0 104068
17:00−9wnw0086100 0.0 104010
20:00−11wnw1187100 0.0 104010